Regional Weather Roundup
Issued by NWS

Home | Current Version | Previous Version | Graphics & Text | Print | Product List | Glossary On
Versions: 1 2 3 4 5 6 7 8 9 10 11 12 13 14 15 16 17 18 19 20 21 22 23 24 25 26 27 28 29 30 31 32 33 34 35 36 37 38 39 40 41 42 43 44 45 46 47 48 49 50
046
ASUS45 KCYS 051610
RWRWY

WYOMING REGIONAL WEATHER ROUNDUP
NATIONAL WEATHER SERVICE CHEYENNE WY
900 AM MST FRI FEB 05 2016

NOTE:  "FAIR" INDICATES FEW OR NO CLOUDS BELOW 12,000 FEET
WITH NO SIGNIFICANT WEATHER AND/OR OBSTRUCTIONS TO VISIBILITY.

WYZ001-051700-
YELLOWSTONE NATIONAL PARK

CITY           SKY/WX    TMP DP  RH WIND       PRES   REMARKS
LK YELLOWSTONE   N/A      9   5  84 CALM      30.39R
W YELLOWSTONE  NOT AVBL

$$
WYZ002>013-054>058-071-098>099-051700-
NORTHERN WYOMING

CITY           SKY/WX    TMP DP  RH WIND       PRES   REMARKS
JACKSON        MOSUNNY    3   1  92 NE9       30.44R WCI -11
CODY           FAIR      32   9  37 W17G29    30.26S WCI  21
GREYBULL       FAIR      15  12  88 S3        30.36S
WORLAND        FAIR      13   8  81 CALM      30.35R
SHERIDAN       SUNNY     28  12  50 W7        30.27S WCI  21
BUFFALO        FAIR      27   9  46 W3        30.26R
GILLETTE       FAIR      29  19  66 W16       30.25R WCI  17
HULETT         FAIR      30  25  80 NW3       30.26R
NEWCASTLE      FAIR      30  23  74 NW21      30.23R WCI  17

$$
WYZ014>020-022>026-101>103-051700-
CENTRAL WYOMING

CITY           SKY/WX    TMP DP  RH WIND       PRES   REMARKS
BIG PINEY      FAIR      14   6  70 S3        30.39R
PINEDALE       FAIR      14   7  73 NW17      30.36R WCI  -3
DUBOIS         FAIR      21   9  58 NW21      30.31R WCI   6
LANDER         FAIR      20   1  43 CALM      30.32R
RIVERTON       FAIR      19   5  54 SW6       30.33R WCI  11
CASPER         FAIR      18   7  62 W13       30.32R WCI   5
DOUGLAS        FAIR      21  10  62 NW13      30.31R WCI   9

$$
WYZ021-027>030-104>119-051700-
SOUTHERN WYOMING

CITY           SKY/WX    TMP DP  RH WIND       PRES   REMARKS
EVANSTON       CLOUDY    19  15  84 SW6       30.45R WCI  11
FORT BRIDGER   MOSUNNY   19  16  86 W16       30.46S WCI   5
ROCK SPRINGS   FAIR      16  11  80 W21       30.39R WCI  -1
DIXON          FAIR      -1  -4  85 NE5       30.46R WCI -11
RAWLINS        FAIR      13   7  77 W20       30.35R WCI  -5
SARATOGA       FAIR      12   5  73 SW8       30.37R WCI   1
LARAMIE        FAIR      11   3  70 SW10      30.26R WCI  -3
CHEYENNE       FAIR      23   9  55 NW12      30.26R WCI  12
TORRINGTON     CLOUDY    23  13  65 NW9       30.29R WCI  13
PINE BLUFFS    FAIR      23  12  63 NW16      30.29R WCI  10

$$




USA.gov is the U.S. government's official web portal to all federal, state and local government web resources and services.